Terug naar catalogus

STARLINK-34529

ActiefCommunicatieSSO
NORAD 64936·PAYLOAD·🇺🇸 United States

Gelanceerd Jul 26, 2025 vanaf Vandenberg Space Force Base

Loading…

Volgende Passages (komende 24 uur)

TLE

VersSource: CelesTrak SupGP

Epoch: Sep 15, 2026, 03:00 UTC

1 64936C 25158E   26258.12548611  .00006176  00000+0  19166-3 0  2583
2 64936  97.2846 116.4601 0001622  92.2457 113.9625 15.33443253    16

Volg STARLINK-34529 in realtime met AllMySat

Download on the App Store